Simultaneous Nadir Overpasses (SNOs) Predictions

Prediction of SNOs over PacNW region [( 10.00, 139.50) to ( 22.70, 165.60)] between AQUA and NPP Satellites:

Table of predicted SNOs over PacNW region for the next 30.0 days since TLE Epoch: 12/10/2022
Index Date (AQUA) Time (AQUA) AQUA Lat,Lon Date (NPP) Time (NPP) NPP Lat,Lon Distance(km) Time Diff (sec)
1 12/12/2022 04:01:47 22.66, 141.79 12/12/2022 03:59:38 21.93, 138.09 389.69 129
2 12/20/2022 03:09:10 22.68, 155.00 12/20/2022 03:09:02 21.82, 150.77 445.34 8
3 12/30/2022 15:51:35 20.32, 151.00 12/30/2022 15:50:56 21.06, 147.22 402.40 39
4 01/07/2023 14:58:06 22.62, 164.82 01/07/2023 14:59:37 23.63, 160.53 453.00 91
